Regional Weather Roundup
Issued by NWS Charleston, SC

Current Version | Previous Version | Text Only | Print | Product List | Glossary Off
Versions: 1 2 3 4 5 6 7 8 9 10 11 12 13 14 15 16 17 18 19 20 21 22 23 24 25 26 27 28 29 30 31 32 33 34 35 36 37 38 39 40 41 42 43 44 45 46 47 48 49 50

000
ASUS42 KCHS 280313
RWRCHS

REGIONAL WEATHER ROUNDUP
NATIONAL WEATHER SERVICE CHARLESTON SC
1100 PM EDT FRI MAY 27 2016

NOTE: "FAIR" INDICATES FEW OR NO CLOUDS BELOW 12,000 FEET WITH NO
SIGNIFICANT WEATHER AND/OR OBSTRUCTIONS TO VISIBILITY.

NOT ALL STATIONS ARE QUALITY CONTROLLED. USE DATA WITH CAUTION...
ESPECIALLY DEWPOINT OBSERVATIONS.

SCZ027-030-031-034>040-042>050-280400-
...SOUTHEAST SOUTH CAROLINA...

CITY           SKY/WX    TMP DP  RH WIND       PRES   REMARKS
N CHARLESTON   MOCLDY    75  64  68 NE6       30.10R
WATERFRONT PRK   N/A     76  69  79 E10       30.07R
MOUNT PLEASANT CLOUDY    73  66  78 CALM      30.10S
JOHNS ISLAND   CLOUDY    75  68  78 NE10      30.10S
PINOPOLIS        N/A     75  64  69 VRB2      30.02R
MONCKS CORNER  CLOUDY    64  59  82 CALM      30.11S
SUMMERVILLE    FAIR      68  64  88 CALM      30.11S
BEAUFORT MCAS  CLEAR     74  67  78 E5        30.09S
BEAUFORT ARPT  FAIR      72  64  78 E6        30.09S
HILTON HEAD IS CLEAR     73  68  83 VRB7      30.09S
WALTERBORO     CLEAR     68  63  83 CALM      30.11S
ALLENDALE      FAIR      70  63  78 CALM      30.10R

...SOUTHERN MIDLANDS AND PEE DEE...

CITY           SKY/WX    TMP DP  RH WIND       PRES   REMARKS
GEORGETOWN     FAIR      72  64  78 E3        30.12S
KINGSTREE      FAIR      64  59  82 CALM      30.12R
ORANGEBURG     PTCLDY    71  60  68 CALM      30.11R
BARNWELL       FAIR      75  64  69 CALM      30.11R
AIKEN          FAIR      70  59  68 SE3       30.14R
MANNING        FAIR      64  59  82 CALM      30.12R
COLUMBIA       CLEAR     73  55  53 E6        30.10R
SUMTER         CLEAR     70  54  56 SE1       30.10R
FLORENCE       CLEAR     69  58  67 CALM      30.13R
MYRTLE BEACH   PTCLDY    75  61  60 E9        30.14R
N MYRTLE BEACH PTCLDY    75  66  73 E5        30.12R

$$

GAZ063-065-086>088-099>101-113>116-118-119-134>141-150-280400-
...SOUTHEAST GEORGIA...

CITY           SKY/WX    TMP DP  RH WIND       PRES   REMARKS
SAVANNAH ARPT  CLEAR     71  65  81 E7        30.09S
HUNTER AAF     CLEAR     73  69  87 CALM      30.06S
FORT STEWART   CLEAR     69  64  85 CALM      30.06S
STATESBORO     CLEAR     69  65  88 CALM      30.09S
SYLVANIA       CLEAR     72  64  77 CALM      30.11R
CLAXTON        FAIR      68  65  91 NE3       30.09R

...CSRA...CENTRAL AND FAR SOUTHEAST GEORGIA...

CITY           SKY/WX    TMP DP  RH WIND       PRES   REMARKS
THOMSON        CLEAR     76  63  64 CALM      30.13R
AUGUSTA-BUSH   CLEAR     69  61  75 SE5       30.09R
AUGUSTA-DANIEL CLEAR     75  59  57 SE7       30.11R
SWAINSBORO     FAIR      72  61  68 SE6       30.10R
VIDALIA        CLEAR     72  63  73 CALM      30.09R
EASTMAN        FAIR      73  62  66 SE5       30.10R
HAZLEHURST     FAIR      74  65  73 CALM      30.07R
ALMA           CLEAR     71  64  78 E3        30.07R
WAYCROSS       PTCLDY    73  66  80 E5        30.07R
JESUP          FAIR      66  63  88 E3        30.08R
BAXLEY         FAIR      73  66  78 CALM      30.08R
BRUNSWICK      PTCLDY    73  70  88 NE6       30.08S
SAINT SIMONS   PTCLDY    76  67  73 E8        30.06S

$$

SCZ027-028-034-036>038-045-046-048>050-GAZ119-141-280400-
...LAKE AND SUPPLEMENTAL COASTAL OBSERVATIONS...

STATION/POSITION TIME  TEMP    WIND        PRES    WAVE   SWELL
                       AIR SEA DIR/SP/G            HT/PER HT/PER/DIR
                 (UTC) (F)     (DEG/KT/KT) (MB)    (FT/S) (FT/S/D)
WINYAH BAY       NOT AVBL
LAKE MURRAY      0200   78     100/  3/  7 1018.6R
ACE BASIN NERRS  NOT AVBL
FORT PULASKI     0200           70/ 14/ 16 1018.9R
SAPELO ISLAND    0200   75      50/  6     1018.0S

$$

ANZ835-935-AMZ111-154-330-350-352-354-370-450-454-472-280400-
...C-MAN AND BUOY OBSERVATIONS...

STATION/POSITION TIME  TEMP    WIND        PRES    WAVE   SWELL
                       AIR SEA DIR/SP/G            HT/PER HT/PER/DIR
                 (UTC) (F)     (DEG/KT/KT) (MB)    (FT/S) (FT/S/D)
BUOY 41004       0250   77 76   90/ 10/ 12 1018.0R   3/ 8   3/ 8
BUOY 41008       0250   76 76   70/ 12/ 14 1018.0R   4/ 6   2/110/ 7
FOLLY BEACH CMAN 0200   76      70/ 14/ 16 1019.0R
CAPERS NEARSHORE 0208   76 76   80/ 16/ 19 1018.7R
FRIPP NEARSHORE  0208   76 77   90/ 14/ 17 1018.1R


STATION/POSITION TIME  TEMP    WIND        PRES    WAVE   SWELL
                       AIR SEA DIR/SP/G            HT/PER HT/PER/DIR
                 (UTC) (F)     (DEG/KT/KT) (MB)    (FT/S) (FT/S/D)
5E ST. MARYS GA  0301      78                N/A     3/ 7
FRYING PAN BUOY  0200   77 76   70/ 12/ 14 1019.0R
BUOY 41025       0250   77 78  130/ 10/ 12 1021.1F   3/ 8   2/130/ 8
CAPE LOOKOUT NC  0200   74      80/  7/  8 1020.5R
BUOY 41002       0250   77 77   80/ 19/ 21 1017.5R   6/ 9   5/120/ 9
BUOY 41010       0220   77 78   30/ 14/ 16 1015.0R
ST AUGUSTINE FL  0300   77 80   70/ 12/ 12 1018.0R


$$




USA.gov is the U.S. government's official web portal to all federal, state and local government web resources and services.